Time,TemperatureF,DewpointF,PressureIn,WindDirection,WindDirectionDegrees,WindSpeedMPH,WindSpeedGustMPH,Humidity,HourlyPrecipIn,Conditions,Clouds,dailyrainin,SolarRadiationWatts/m^2,SoftwareType,DateUTC
2013-09-26 00:00:00,77.5,73.7,29.80,West,274,0.0,0.0,88,0.00,,CLR,0.02,0.00,VWS V14.00,2013-09-26 04:00:00,
2013-09-26 00:01:00,77.5,73.7,29.80,West,274,0.0,0.0,88,0.00,,CLR,0.02,0.00,VWS V14.00,2013-09-26 04:01:00,
2013-09-26 00:06:00,77.4,73.6,29.80,West,274,0.0,0.0,88,0.00,,CLR,0.00,0.00,VWS V14.00,2013-09-26 04:06:00,
2013-09-26 00:11:00,77.3,73.5,29.80,West,274,0.0,0.0,88,0.00,,CLR,0.00,0.00,VWS V14.00,2013-09-26 04:11:00,
2013-09-26 00:16:00,77.4,73.6,29.80,West,274,0.0,4.0,88,0.00,,CLR,0.00,0.00,VWS V14.00,2013-09-26 04:16:00,
2013-09-26 00:21:00,77.4,73.6,29.80,West,274,0.0,0.0,88,0.00,,CLR,0.01,0.00,VWS V14.00,2013-09-26 04:21:00,
2013-09-26 00:26:00,77.4,73.6,29.80,West,274,0.0,0.0,88,0.00,,CLR,0.01,0.00,VWS V14.00,2013-09-26 04:26:00,
2013-09-26 00:31:00,77.3,73.5,29.80,West,274,0.0,0.0,88,0.00,,CLR,0.01,0.00,VWS V14.00,2013-09-26 04:31:00,
2013-09-26 00:36:00,77.3,73.5,29.80,West,274,0.0,0.0,88,0.00,,CLR,0.01,0.00,VWS V14.00,2013-09-26 04:36:00,
2013-09-26 00:41:00,77.4,73.6,29.80,West,274,0.0,0.0,88,0.00,,CLR,0.01,0.00,VWS V14.00,2013-09-26 04:41:00,
2013-09-26 00:46:00,77.3,73.5,29.80,West,274,0.0,0.0,88,0.00,,CLR,0.01,0.00,VWS V14.00,2013-09-26 04:46:00,
2013-09-26 00:52:00,77.2,73.4,29.80,West,274,0.0,0.0,88,0.00,,CLR,0.01,0.00,VWS V14.00,2013-09-26 04:52:00,
2013-09-26 00:57:00,77.1,73.3,29.80,West,274,0.0,0.0,88,0.00,,CLR,0.01,0.00,VWS V14.00,2013-09-26 04:57:00,
2013-09-26 01:02:00,77.0,73.2,29.80,West,274,0.0,0.0,88,0.00,,CLR,0.01,0.00,VWS V14.00,2013-09-26 05:02:00,
2013-09-26 01:07:00,76.9,73.1,29.80,West,274,0.0,0.0,88,0.00,,CLR,0.01,0.00,VWS V14.00,2013-09-26 05:07:00,
2013-09-26 01:12:00,76.9,73.1,29.79,West,274,0.0,0.0,88,0.00,,CLR,0.01,0.00,VWS V14.00,2013-09-26 05:12:00,
2013-09-26 01:17:00,76.8,73.0,29.79,West,274,0.0,0.0,88,0.00,,CLR,0.01,0.00,VWS V14.00,2013-09-26 05:17:00,
2013-09-26 01:22:00,76.8,73.0,29.79,West,274,0.0,0.0,88,0.00,,CLR,0.01,0.00,VWS V14.00,2013-09-26 05:22:00,
2013-09-26 01:27:00,76.8,73.0,29.79,West,274,0.0,0.0,88,0.00,,CLR,0.01,0.00,VWS V14.00,2013-09-26 05:27:00,
2013-09-26 01:32:00,76.8,73.3,29.79,West,274,0.0,0.0,89,0.00,,CLR,0.01,0.00,VWS V14.00,2013-09-26 05:32:00,
2013-09-26 01:37:00,76.7,73.2,29.80,West,274,0.0,0.0,89,0.00,,CLR,0.01,0.00,VWS V14.00,2013-09-26 05:37:00,
2013-09-26 01:42:00,76.7,73.2,29.79,West,274,0.0,0.0,89,0.00,,CLR,0.01,0.00,VWS V14.00,2013-09-26 05:42:00,
2013-09-26 01:47:00,76.6,73.1,29.79,West,274,0.0,0.0,89,0.00,,CLR,0.01,0.00,VWS V14.00,2013-09-26 05:47:00,
2013-09-26 01:52:00,76.7,73.2,29.79,West,274,0.0,0.0,89,0.00,,CLR,0.01,0.00,VWS V14.00,2013-09-26 05:52:00,
2013-09-26 01:57:00,76.6,73.1,29.79,West,274,0.0,0.0,89,0.00,,CLR,0.01,0.00,VWS V14.00,2013-09-26 05:57:00,
2013-09-26 02:02:00,76.7,73.2,29.79,West,274,0.0,0.0,89,0.00,,CLR,0.01,0.00,VWS V14.00,2013-09-26 06:02:00,
2013-09-26 02:07:00,76.8,73.3,29.80,West,274,0.0,0.0,89,0.00,,CLR,0.01,0.00,VWS V14.00,2013-09-26 06:07:00,
2013-09-26 02:12:00,76.7,73.2,29.80,West,274,0.0,0.0,89,0.00,,CLR,0.01,0.00,VWS V14.00,2013-09-26 06:12:00,
2013-09-26 02:17:00,76.7,73.2,29.80,West,274,0.0,0.0,89,0.00,,CLR,0.01,0.00,VWS V14.00,2013-09-26 06:17:00,
2013-09-26 02:22:00,76.6,73.1,29.80,West,274,0.0,0.0,89,0.00,,CLR,0.01,0.00,VWS V14.00,2013-09-26 06:22:00,
2013-09-26 02:27:00,76.6,73.1,29.79,West,274,0.0,0.0,89,0.00,,CLR,0.01,0.00,VWS V14.00,2013-09-26 06:27:00,
2013-09-26 02:32:00,76.6,73.1,29.79,West,274,0.0,0.0,89,0.00,,CLR,0.01,0.00,VWS V14.00,2013-09-26 06:32:00,
2013-09-26 02:37:00,76.5,73.0,29.79,West,274,0.0,0.0,89,0.00,,CLR,0.01,0.00,VWS V14.00,2013-09-26 06:37:00,
2013-09-26 02:42:00,76.4,72.9,29.78,West,274,0.0,0.0,89,0.00,,CLR,0.01,0.00,VWS V14.00,2013-09-26 06:42:00,
2013-09-26 02:47:00,76.4,72.9,29.78,West,274,0.0,0.0,89,0.00,,CLR,0.01,0.00,VWS V14.00,2013-09-26 06:47:00,
2013-09-26 02:52:00,76.4,72.9,29.78,West,274,0.0,0.0,89,0.00,,CLR,0.01,0.00,VWS V14.00,2013-09-26 06:52:00,
2013-09-26 02:57:00,76.5,73.0,29.78,West,274,0.0,0.0,89,0.00,,CLR,0.01,0.00,VWS V14.00,2013-09-26 06:57:00,
2013-09-26 03:02:00,76.4,72.9,29.78,West,274,0.0,0.0,89,0.00,,CLR,0.01,0.00,VWS V14.00,2013-09-26 07:02:00,
2013-09-26 03:07:00,76.5,73.0,29.78,West,274,0.0,0.0,89,0.00,,CLR,0.01,0.00,VWS V14.00,2013-09-26 07:07:00,
2013-09-26 03:12:00,76.4,72.9,29.78,West,274,0.0,0.0,89,0.00,,CLR,0.01,0.00,VWS V14.00,2013-09-26 07:12:00,
2013-09-26 03:17:00,76.3,72.8,29.78,West,274,0.0,0.0,89,0.00,,CLR,0.01,0.00,VWS V14.00,2013-09-26 07:17:00,
2013-09-26 03:22:00,76.2,72.7,29.78,West,274,0.0,0.0,89,0.00,,CLR,0.01,0.00,VWS V14.00,2013-09-26 07:22:00,
2013-09-26 03:27:00,76.1,72.6,29.78,West,274,0.0,0.0,89,0.00,,CLR,0.01,0.00,VWS V14.00,2013-09-26 07:27:00,
2013-09-26 03:32:00,76.1,72.6,29.78,West,274,0.0,0.0,89,0.00,,CLR,0.01,0.00,VWS V14.00,2013-09-26 07:32:00,
2013-09-26 03:37:00,76.1,72.6,29.78,West,274,0.0,0.0,89,0.00,,CLR,0.01,0.00,VWS V14.00,2013-09-26 07:37:00,
2013-09-26 03:42:00,76.0,72.5,29.78,West,274,0.0,0.0,89,0.00,,CLR,0.01,0.00,VWS V14.00,2013-09-26 07:42:00,
2013-09-26 03:47:00,76.0,72.5,29.78,West,274,0.0,0.0,89,0.00,,CLR,0.01,0.00,VWS V14.00,2013-09-26 07:47:00,
2013-09-26 03:52:00,76.1,72.6,29.78,West,274,0.0,1.0,89,0.00,,CLR,0.01,0.00,VWS V14.00,2013-09-26 07:52:00,
2013-09-26 03:57:00,76.1,72.6,29.78,West,274,0.0,0.0,89,0.00,,CLR,0.01,0.00,VWS V14.00,2013-09-26 07:57:00,
2013-09-26 04:02:00,76.1,72.6,29.78,West,274,0.0,0.0,89,0.00,,CLR,0.01,0.00,VWS V14.00,2013-09-26 08:02:00,
2013-09-26 04:07:00,76.1,72.6,29.78,West,274,0.0,0.0,89,0.00,,CLR,0.01,0.00,VWS V14.00,2013-09-26 08:07:00,
2013-09-26 04:12:00,76.2,72.7,29.77,West,274,0.0,1.0,89,0.00,,CLR,0.01,0.00,VWS V14.00,2013-09-26 08:12:00,
2013-09-26 04:17:00,76.2,72.7,29.77,West,274,0.0,0.0,89,0.00,,CLR,0.01,0.00,VWS V14.00,2013-09-26 08:17:00,
2013-09-26 04:22:00,76.2,72.7,29.77,West,274,0.0,0.0,89,0.00,,CLR,0.01,0.00,VWS V14.00,2013-09-26 08:22:00,
2013-09-26 04:27:00,76.3,72.8,29.77,West,274,0.0,0.0,89,0.00,,CLR,0.01,0.00,VWS V14.00,2013-09-26 08:27:00,
2013-09-26 04:32:00,76.3,72.8,29.77,West,274,0.0,1.0,89,0.00,,CLR,0.01,0.00,VWS V14.00,2013-09-26 08:32:00,
2013-09-26 04:37:00,76.3,72.8,29.77,West,274,0.0,2.0,89,0.00,,CLR,0.01,0.00,VWS V14.00,2013-09-26 08:37:00,
2013-09-26 04:42:00,76.3,72.8,29.77,West,274,0.0,0.0,89,0.00,,CLR,0.01,0.00,VWS V14.00,2013-09-26 08:42:00,
2013-09-26 04:48:00,76.3,72.8,29.77,West,274,0.0,0.0,89,0.00,,CLR,0.01,0.00,VWS V14.00,2013-09-26 08:48:00,
2013-09-26 04:53:00,76.3,72.8,29.77,West,274,0.0,0.0,89,0.00,,CLR,0.01,0.00,VWS V14.00,2013-09-26 08:53:00,
2013-09-26 04:58:00,76.3,72.8,29.78,West,274,0.0,0.0,89,0.00,,CLR,0.01,0.00,VWS V14.00,2013-09-26 08:58:00,
2013-09-26 05:03:00,76.2,72.7,29.77,West,274,0.0,0.0,89,0.00,,CLR,0.01,0.00,VWS V14.00,2013-09-26 09:03:00,
2013-09-26 05:08:00,76.2,72.7,29.77,West,274,0.0,0.0,89,0.00,,CLR,0.01,0.00,VWS V14.00,2013-09-26 09:08:00,
2013-09-26 05:13:00,76.2,72.7,29.78,West,274,0.0,0.0,89,0.00,,CLR,0.01,0.00,VWS V14.00,2013-09-26 09:13:00,
2013-09-26 05:18:00,76.2,72.7,29.78,West,274,0.0,0.0,89,0.00,,CLR,0.01,0.00,VWS V14.00,2013-09-26 09:18:00,
2013-09-26 05:23:00,76.2,72.7,29.78,West,274,0.0,0.0,89,0.00,,CLR,0.01,0.00,VWS V14.00,2013-09-26 09:23:00,
2013-09-26 05:28:00,76.1,72.6,29.78,West,274,0.0,0.0,89,0.00,,CLR,0.01,0.00,VWS V14.00,2013-09-26 09:28:00,
2013-09-26 05:33:00,76.1,72.6,29.78,West,274,0.0,0.0,89,0.00,,CLR,0.01,0.00,VWS V14.00,2013-09-26 09:33:00,
2013-09-26 05:38:00,76.1,72.6,29.78,West,274,0.0,0.0,89,0.00,,CLR,0.01,0.00,VWS V14.00,2013-09-26 09:38:00,
2013-09-26 05:43:00,76.0,72.5,29.78,West,274,0.0,0.0,89,0.00,,CLR,0.01,0.00,VWS V14.00,2013-09-26 09:43:00,
2013-09-26 05:48:00,76.0,72.5,29.78,West,274,0.0,0.0,89,0.00,,CLR,0.01,0.00,VWS V14.00,2013-09-26 09:48:00,
2013-09-26 05:53:00,76.0,72.5,29.79,West,274,0.0,0.0,89,0.00,,CLR,0.01,0.00,VWS V14.00,2013-09-26 09:53:00,
2013-09-26 05:58:00,75.9,72.4,29.79,West,274,0.0,0.0,89,0.00,,CLR,0.01,0.00,VWS V14.00,2013-09-26 09:58:00,
2013-09-26 06:03:00,75.9,72.4,29.79,West,274,0.0,0.0,89,0.00,,CLR,0.01,0.00,VWS V14.00,2013-09-26 10:03:00,
2013-09-26 06:08:00,75.8,72.3,29.79,West,274,0.0,0.0,89,0.00,,CLR,0.01,0.00,VWS V14.00,2013-09-26 10:08:00,
2013-09-26 06:13:00,75.8,72.3,29.79,West,274,0.0,0.0,89,0.00,,CLR,0.01,0.00,VWS V14.00,2013-09-26 10:13:00,
2013-09-26 06:18:00,75.8,72.3,29.79,West,274,0.0,0.0,89,0.00,,CLR,0.01,0.00,VWS V14.00,2013-09-26 10:18:00,
2013-09-26 06:23:00,75.8,72.3,29.79,West,274,0.0,0.0,89,0.00,,CLR,0.01,0.00,VWS V14.00,2013-09-26 10:23:00,
2013-09-26 06:28:00,75.7,72.2,29.79,West,274,0.0,0.0,89,0.00,,CLR,0.01,0.00,VWS V14.00,2013-09-26 10:28:00,
2013-09-26 06:33:00,75.8,72.3,29.79,West,274,0.0,0.0,89,0.00,,CLR,0.01,0.00,VWS V14.00,2013-09-26 10:33:00,
2013-09-26 06:38:00,75.8,72.3,29.79,West,274,0.0,0.0,89,0.00,,CLR,0.01,0.00,VWS V14.00,2013-09-26 10:38:00,
2013-09-26 06:43:00,75.8,72.3,29.79,West,274,0.0,0.0,89,0.00,,CLR,0.01,0.00,VWS V14.00,2013-09-26 10:43:00,
2013-09-26 06:48:00,75.9,72.4,29.80,West,274,0.0,0.0,89,0.00,,CLR,0.01,0.00,VWS V14.00,2013-09-26 10:48:00,
2013-09-26 06:53:00,75.9,72.4,29.80,West,274,0.0,0.0,89,0.00,,CLR,0.01,0.00,VWS V14.00,2013-09-26 10:53:00,
2013-09-26 06:58:00,76.0,72.5,29.80,West,274,0.0,0.0,89,0.00,,CLR,0.01,0.00,VWS V14.00,2013-09-26 10:58:00,
2013-09-26 07:03:00,76.0,72.5,29.80,West,274,0.0,0.0,89,0.00,,CLR,0.01,0.00,VWS V14.00,2013-09-26 11:03:00,
2013-09-26 07:08:00,76.1,72.6,29.79,West,274,0.0,0.0,89,0.00,,CLR,0.01,0.00,VWS V14.00,2013-09-26 11:08:00,
2013-09-26 07:14:00,76.2,72.7,29.80,West,274,0.0,0.0,89,0.00,,CLR,0.01,0.00,VWS V14.00,2013-09-26 11:14:00,
2013-09-26 07:19:00,76.3,73.2,29.80,West,274,0.0,0.0,90,0.00,,CLR,0.01,5.00,VWS V14.00,2013-09-26 11:19:00,
2013-09-26 07:24:00,76.4,73.2,29.80,West,274,0.0,0.0,90,0.00,,CLR,0.01,16.00,VWS V14.00,2013-09-26 11:24:00,
2013-09-26 07:29:00,76.4,72.9,29.80,West,274,0.0,0.0,89,0.00,,CLR,0.01,16.00,VWS V14.00,2013-09-26 11:29:00,
2013-09-26 07:34:00,76.6,73.1,29.80,West,274,2.0,2.0,89,0.00,,CLR,0.01,23.00,VWS V14.00,2013-09-26 11:34:00,
2013-09-26 07:39:00,76.7,73.2,29.80,West,274,0.0,2.0,89,0.00,,CLR,0.01,30.00,VWS V14.00,2013-09-26 11:39:00,
2013-09-26 07:44:00,76.8,73.3,29.80,West,274,0.0,0.0,89,0.00,,CLR,0.01,76.00,VWS V14.00,2013-09-26 11:44:00,
2013-09-26 07:49:00,76.9,73.4,29.80,West,274,0.0,3.0,89,0.00,,CLR,0.01,84.00,VWS V14.00,2013-09-26 11:49:00,
2013-09-26 07:54:00,77.1,73.6,29.80,West,274,0.0,0.0,89,0.00,,CLR,0.01,90.00,VWS V14.00,2013-09-26 11:54:00,
2013-09-26 07:59:00,77.4,73.9,29.80,West,274,0.0,1.0,89,0.00,,CLR,0.01,97.00,VWS V14.00,2013-09-26 11:59:00,
2013-09-26 08:04:00,77.6,74.1,29.80,West,274,3.0,3.0,89,0.00,,CLR,0.01,95.00,VWS V14.00,2013-09-26 12:04:00,
2013-09-26 08:09:00,77.9,74.4,29.80,West,274,3.0,5.0,89,0.00,,CLR,0.01,102.00,VWS V14.00,2013-09-26 12:09:00,
2013-09-26 08:14:00,78.3,74.8,29.80,West,274,3.0,4.0,89,0.00,,CLR,0.01,105.00,VWS V14.00,2013-09-26 12:14:00,
2013-09-26 08:19:00,78.6,75.1,29.80,West,274,2.0,3.0,89,0.00,,CLR,0.01,105.00,VWS V14.00,2013-09-26 12:19:00,
2013-09-26 08:24:00,78.9,75.4,29.80,West,274,3.0,5.0,89,0.00,,CLR,0.01,109.00,VWS V14.00,2013-09-26 12:24:00,
2013-09-26 08:29:00,79.2,75.7,29.80,West,274,0.0,3.0,89,0.00,,CLR,0.01,113.00,VWS V14.00,2013-09-26 12:29:00,
2013-09-26 08:34:00,79.6,76.1,29.80,West,274,5.0,5.0,89,0.00,,CLR,0.01,116.00,VWS V14.00,2013-09-26 12:34:00,
2013-09-26 08:39:00,79.9,76.4,29.81,West,274,2.0,5.0,89,0.00,,CLR,0.01,120.00,VWS V14.00,2013-09-26 12:39:00,
2013-09-26 08:44:00,80.2,76.7,29.81,NW,304,5.0,5.0,89,0.00,,CLR,0.01,125.00,VWS V14.00,2013-09-26 12:44:00,
2013-09-26 08:49:00,80.4,76.9,29.81,WNW,296,3.0,6.0,89,0.00,,CLR,0.01,128.00,VWS V14.00,2013-09-26 12:49:00,
2013-09-26 08:54:00,80.7,77.2,29.82,West,274,6.0,9.0,89,0.00,,CLR,0.01,132.00,VWS V14.00,2013-09-26 12:54:00,
2013-09-26 08:59:00,80.9,77.0,29.82,West,259,4.0,7.0,88,0.00,,CLR,0.01,135.00,VWS V14.00,2013-09-26 12:59:00,
2013-09-26 09:04:00,81.3,77.4,29.82,West,275,10.0,10.0,88,0.00,,CLR,0.01,120.00,VWS V14.00,2013-09-26 13:04:00,
2013-09-26 09:09:00,81.5,77.6,29.82,West,273,7.0,9.0,88,0.00,,CLR,0.01,146.00,VWS V14.00,2013-09-26 13:09:00,
2013-09-26 09:14:00,81.9,77.7,29.82,West,272,6.0,9.0,87,0.00,,CLR,0.01,74.00,VWS V14.00,2013-09-26 13:14:00,
2013-09-26 09:19:00,82.2,77.9,29.82,West,261,5.0,7.0,87,0.00,,CLR,0.01,83.00,VWS V14.00,2013-09-26 13:19:00,
2013-09-26 09:24:00,82.4,77.8,29.82,West,269,6.0,6.0,86,0.00,,CLR,0.01,62.00,VWS V14.00,2013-09-26 13:24:00,
2013-09-26 09:29:00,82.7,78.1,29.81,West,259,7.0,13.0,86,0.00,,CLR,0.01,171.00,VWS V14.00,2013-09-26 13:29:00,
2013-09-26 09:34:00,83.1,78.1,29.82,West,265,5.0,12.0,85,0.00,,BKN013,0.01,186.00,VWS V14.00,2013-09-26 13:34:00,
2013-09-26 09:39:00,83.6,78.6,29.81,WSW,254,5.0,8.0,85,0.00,,BKN013,0.01,221.00,VWS V14.00,2013-09-26 13:39:00,
2013-09-26 09:44:00,84.0,78.3,29.81,West,261,7.0,7.0,83,0.00,,BKN013,0.01,102.00,VWS V14.00,2013-09-26 13:44:00,
2013-09-26 09:49:00,84.0,78.7,29.82,West,275,7.0,14.0,84,0.00,,BKN013,0.01,125.00,VWS V14.00,2013-09-26 13:49:00,
2013-09-26 09:54:00,84.0,78.3,29.82,West,269,13.0,14.0,83,0.00,,BKN013,0.01,93.00,VWS V14.00,2013-09-26 13:54:00,
2013-09-26 09:59:00,83.9,78.2,29.82,WNW,302,11.0,17.0,83,0.00,,BKN013,0.01,97.00,VWS V14.00,2013-09-26 13:59:00,
2013-09-26 10:04:00,83.9,78.2,29.83,West,279,9.0,11.0,83,0.00,,BKN013,0.01,86.00,VWS V14.00,2013-09-26 14:04:00,
2013-09-26 10:10:00,83.9,78.2,29.82,West,271,7.0,9.0,83,0.00,,BKN013,0.01,72.00,VWS V14.00,2013-09-26 14:10:00,
2013-09-26 10:15:00,83.9,77.8,29.82,West,280,5.0,11.0,82,0.00,,BKN013,0.01,67.00,VWS V14.00,2013-09-26 14:15:00,
2013-09-26 10:20:00,83.9,78.2,29.83,West,278,7.0,11.0,83,0.00,,BKN013,0.01,53.00,VWS V14.00,2013-09-26 14:20:00,
2013-09-26 10:25:00,84.0,78.3,29.82,West,270,5.0,5.0,83,0.00,,BKN013,0.01,76.00,VWS V14.00,2013-09-26 14:25:00,
2013-09-26 10:30:00,84.1,78.4,29.83,West,271,9.0,11.0,83,0.00,,BKN013,0.01,104.00,VWS V14.00,2013-09-26 14:30:00,
2013-09-26 10:35:00,84.4,78.7,29.83,NW,308,12.0,14.0,83,0.00,,BKN110,0.01,74.00,VWS V14.00,2013-09-26 14:35:00,
2013-09-26 10:40:00,84.4,78.3,29.83,West,265,10.0,14.0,82,0.00,,BKN110,0.01,83.00,VWS V14.00,2013-09-26 14:40:00,
2013-09-26 10:45:00,84.4,78.3,29.82,West,271,9.0,12.0,82,0.00,,BKN110,0.01,104.00,VWS V14.00,2013-09-26 14:45:00,
2013-09-26 10:50:00,84.8,78.3,29.82,West,267,9.0,15.0,81,0.00,,BKN110,0.01,183.00,VWS V14.00,2013-09-26 14:50:00,
2013-09-26 10:55:00,85.3,78.4,29.82,West,271,14.0,14.0,80,0.00,,BKN110,0.01,84.00,VWS V14.00,2013-09-26 14:55:00,
2013-09-26 11:00:00,85.4,78.2,29.82,West,275,6.0,9.0,79,0.00,,BKN110,0.01,104.00,VWS V14.00,2013-09-26 15:00:00,
2013-09-26 11:05:00,85.9,78.6,29.82,WNW,285,13.0,17.0,79,0.00,,BKN110,0.01,218.00,VWS V14.00,2013-09-26 15:05:00,
2013-09-26 11:10:00,86.2,78.2,29.82,WNW,292,7.0,15.0,77,0.00,,BKN110,0.01,199.00,VWS V14.00,2013-09-26 15:10:00,
2013-09-26 11:15:00,86.2,78.5,29.81,West,276,7.0,11.0,78,0.00,,BKN110,0.01,113.00,VWS V14.00,2013-09-26 15:15:00,
2013-09-26 11:20:00,86.4,78.7,29.82,West,280,5.0,6.0,78,0.00,,BKN110,0.01,74.00,VWS V14.00,2013-09-26 15:20:00,
2013-09-26 11:25:00,86.4,77.9,29.82,NW,314,8.0,8.0,76,0.00,,BKN110,0.01,90.00,VWS V14.00,2013-09-26 15:25:00,
2013-09-26 11:30:00,86.3,78.2,29.81,West,261,10.0,10.0,77,0.00,,BKN110,0.01,149.00,VWS V14.00,2013-09-26 15:30:00,
2013-09-26 11:35:00,86.6,78.5,29.81,NW,305,5.0,12.0,77,0.00,,SCT023,0.01,204.00,VWS V14.00,2013-09-26 15:35:00,
2013-09-26 11:40:00,86.6,78.1,29.81,NW,311,12.0,12.0,76,0.00,,SCT023,0.01,86.00,VWS V14.00,2013-09-26 15:40:00,
2013-09-26 11:45:00,86.3,78.2,29.81,WNW,296,5.0,7.0,77,0.00,,SCT023,0.01,88.00,VWS V14.00,2013-09-26 15:45:00,
2013-09-26 11:50:00,86.4,78.3,29.81,WNW,286,2.0,6.0,77,0.00,,SCT023,0.01,98.00,VWS V14.00,2013-09-26 15:50:00,
2013-09-26 11:55:00,86.5,78.0,29.80,West,273,7.0,7.0,76,0.00,,SCT023,0.01,91.00,VWS V14.00,2013-09-26 15:55:00,
2013-09-26 12:00:00,86.7,78.2,29.80,WNW,299,8.0,11.0,76,0.00,,SCT023,0.01,39.00,VWS V14.00,2013-09-26 16:00:00,
2013-09-26 12:05:00,86.3,77.8,29.81,West,276,6.0,12.0,76,0.00,,SCT023,0.02,56.00,VWS V14.00,2013-09-26 16:05:00,
2013-09-26 12:10:00,85.2,77.9,29.82,North,5,10.0,19.0,79,0.00,,SCT023,0.02,16.00,VWS V14.00,2013-09-26 16:10:00,
2013-09-26 12:15:00,81.6,75.6,29.81,North,5,0.0,3.0,82,0.00,,SCT023,0.02,30.00,VWS V14.00,2013-09-26 16:15:00,
2013-09-26 12:20:00,80.6,75.7,29.80,North,360,0.0,0.0,85,0.00,,SCT023,0.02,33.00,VWS V14.00,2013-09-26 16:20:00,
2013-09-26 12:25:00,80.4,75.8,29.80,North,360,0.0,0.0,86,0.00,,SCT023,0.02,35.00,VWS V14.00,2013-09-26 16:25:00,
2013-09-26 12:30:00,80.5,76.3,29.80,North,360,0.0,0.0,87,0.00,,SCT023,0.02,113.00,VWS V14.00,2013-09-26 16:30:00,
2013-09-26 12:35:00,81.0,76.8,29.79,NNW,348,4.0,5.0,87,0.00,,SCT023,0.02,135.00,VWS V14.00,2013-09-26 16:35:00,
2013-09-26 12:40:00,81.3,77.1,29.78,WNW,286,7.0,7.0,87,0.00,,SCT023,0.02,137.00,VWS V14.00,2013-09-26 16:40:00,
2013-09-26 12:45:00,81.9,77.7,29.78,WNW,284,2.0,4.0,87,0.00,,SCT023,0.02,144.00,VWS V14.00,2013-09-26 16:45:00,
2013-09-26 12:50:00,82.8,78.5,29.78,West,281,5.0,6.0,87,0.00,,SCT023,0.02,151.00,VWS V14.00,2013-09-26 16:50:00,
2013-09-26 12:55:00,83.7,79.1,29.78,West,281,5.0,6.0,86,0.00,,SCT023,0.02,88.00,VWS V14.00,2013-09-26 16:55:00,
2013-09-26 13:00:00,84.4,79.0,29.78,West,267,5.0,5.0,84,0.00,,SCT023,0.02,91.00,VWS V14.00,2013-09-26 17:00:00,
2013-09-26 13:05:00,84.8,78.7,29.78,WNW,291,4.0,6.0,82,0.00,,SCT023,0.02,69.00,VWS V14.00,2013-09-26 17:05:00,
2013-09-26 13:10:00,85.5,79.4,29.78,West,265,9.0,9.0,82,0.00,,SCT023,0.02,130.00,VWS V14.00,2013-09-26 17:10:00,
2013-09-26 13:15:00,86.0,79.5,29.78,WSW,250,6.0,11.0,81,0.00,,SCT023,0.02,128.00,VWS V14.00,2013-09-26 17:15:00,
2013-09-26 13:20:00,86.3,78.6,29.77,WSW,246,2.0,11.0,78,0.00,,SCT023,0.02,216.00,VWS V14.00,2013-09-26 17:20:00,
2013-09-26 13:25:00,86.5,79.2,29.76,WSW,255,2.0,8.0,79,0.00,,SCT023,0.02,77.00,VWS V14.00,2013-09-26 17:25:00,
2013-09-26 13:30:00,86.4,79.5,29.78,WNW,301,15.0,23.0,80,0.00,,SCT023,0.02,16.00,VWS V14.00,2013-09-26 17:30:00,
2013-09-26 13:35:00,83.9,77.8,29.79,NW,309,3.0,5.0,82,0.00,,SCT030CU,0.02,26.00,VWS V14.00,2013-09-26 17:35:00,
2013-09-26 13:40:00,82.0,76.7,29.78,WNW,296,4.0,9.0,84,0.00,,SCT030CU,0.02,47.00,VWS V14.00,2013-09-26 17:40:00,
2013-09-26 13:46:00,80.9,76.0,29.77,WNW,288,4.0,5.0,85,0.00,,SCT030CU,0.02,67.00,VWS V14.00,2013-09-26 17:46:00,
2013-09-26 13:51:00,80.6,76.0,29.78,WNW,290,0.0,4.0,86,0.00,,SCT030CU,0.02,74.00,VWS V14.00,2013-09-26 17:51:00,
2013-09-26 13:56:00,80.7,76.5,29.78,WNW,289,2.0,5.0,87,0.00,,BKN003,0.02,83.00,VWS V14.00,2013-09-26 17:56:00,
2013-09-26 14:01:00,81.0,76.4,29.79,WNW,288,10.0,10.0,86,0.00,,BKN003,0.02,72.00,VWS V14.00,2013-09-26 18:01:00,
2013-09-26 14:06:00,81.4,76.8,29.79,WNW,290,2.0,9.0,86,0.00,,BKN003,0.02,56.00,VWS V14.00,2013-09-26 18:06:00,
2013-09-26 14:11:00,81.2,76.6,29.79,WNW,286,6.0,11.0,86,0.00,,BKN003,0.02,72.00,VWS V14.00,2013-09-26 18:11:00,
2013-09-26 14:16:00,81.0,76.1,29.78,WNW,292,6.0,11.0,85,0.00,,BKN003,0.02,81.00,VWS V14.00,2013-09-26 18:16:00,
2013-09-26 14:21:00,81.1,75.8,29.77,WNW,298,6.0,7.0,84,0.00,,BKN003,0.02,81.00,VWS V14.00,2013-09-26 18:21:00,
2013-09-26 14:26:00,81.3,76.0,29.76,West,277,8.0,9.0,84,0.00,,BKN003,0.02,79.00,VWS V14.00,2013-09-26 18:26:00,
2013-09-26 14:31:00,81.6,76.3,29.77,WNW,293,4.0,6.0,84,0.00,,BKN003,0.02,69.00,VWS V14.00,2013-09-26 18:31:00,
2013-09-26 14:36:00,81.9,76.2,29.76,West,276,0.0,5.0,83,0.00,,SCT030,0.02,62.00,VWS V14.00,2013-09-26 18:36:00,
2013-09-26 14:41:00,82.0,76.3,29.76,West,265,7.0,9.0,83,0.00,,SCT030,0.02,58.00,VWS V14.00,2013-09-26 18:41:00,
2013-09-26 14:46:00,82.1,76.4,29.76,WNW,292,2.0,11.0,83,0.00,,SCT030,0.02,58.00,VWS V14.00,2013-09-26 18:46:00,
2013-09-26 14:51:00,82.3,76.6,29.76,WNW,292,2.0,6.0,83,0.00,,SCT030,0.02,65.00,VWS V14.00,2013-09-26 18:51:00,
2013-09-26 14:56:00,82.5,76.8,29.77,West,279,2.0,6.0,83,0.00,,SCT030,0.02,69.00,VWS V14.00,2013-09-26 18:56:00,
2013-09-26 15:01:00,82.7,77.0,29.77,WNW,285,4.0,7.0,83,0.00,,SCT030,0.02,83.00,VWS V14.00,2013-09-26 19:01:00,
2013-09-26 15:06:00,83.0,77.3,29.77,WNW,285,2.0,7.0,83,0.00,,SCT030,0.02,105.00,VWS V14.00,2013-09-26 19:06:00,
2013-09-26 15:11:00,83.3,77.2,29.78,West,276,6.0,7.0,82,0.00,,SCT030,0.02,76.00,VWS V14.00,2013-09-26 19:11:00,
2013-09-26 15:16:00,83.4,77.3,29.77,West,277,2.0,5.0,82,0.00,,SCT030,0.02,84.00,VWS V14.00,2013-09-26 19:16:00,
2013-09-26 15:21:00,83.5,77.8,29.76,West,279,4.0,4.0,83,0.00,,SCT030,0.02,35.00,VWS V14.00,2013-09-26 19:21:00,
2013-09-26 15:26:00,82.9,77.6,29.77,WNW,290,7.0,16.0,84,0.00,,SCT030,0.02,35.00,VWS V14.00,2013-09-26 19:26:00,
2013-09-26 15:31:00,81.5,76.2,29.77,NW,319,13.0,13.0,84,0.00,,SCT030,0.02,37.00,VWS V14.00,2013-09-26 19:31:00,
2013-09-26 15:36:00,80.3,75.0,29.77,NW,317,9.0,9.0,84,0.00,,SCT040,0.02,39.00,VWS V14.00,2013-09-26 19:36:00,
2013-09-26 15:41:00,79.6,74.7,29.77,WNW,292,5.0,9.0,85,0.00,,SCT040,0.02,37.00,VWS V14.00,2013-09-26 19:41:00,
2013-09-26 15:46:00,79.4,74.5,29.77,West,278,4.0,6.0,85,0.00,,SCT040,0.02,33.00,VWS V14.00,2013-09-26 19:46:00,
2013-09-26 15:51:00,79.2,74.7,29.77,West,279,2.0,5.0,86,0.00,,SCT040,0.02,32.00,VWS V14.00,2013-09-26 19:51:00,
2013-09-26 15:56:00,79.1,74.6,29.77,West,269,6.0,8.0,86,0.00,,SCT040,0.02,30.00,VWS V14.00,2013-09-26 19:56:00,
2013-09-26 16:01:00,79.1,74.6,29.78,West,271,1.0,4.0,86,0.00,,SCT040,0.02,26.00,VWS V14.00,2013-09-26 20:01:00,
2013-09-26 16:06:00,79.0,74.5,29.78,West,273,3.0,5.0,86,0.00,,SCT040,0.02,26.00,VWS V14.00,2013-09-26 20:06:00,
2013-09-26 16:11:00,79.1,74.6,29.77,West,273,5.0,5.0,86,0.00,,SCT040,0.02,32.00,VWS V14.00,2013-09-26 20:11:00,
2013-09-26 16:16:00,79.1,74.6,29.77,West,273,1.0,5.0,86,0.00,,SCT040,0.02,37.00,VWS V14.00,2013-09-26 20:16:00,
2013-09-26 16:21:00,79.2,74.7,29.77,West,273,2.0,6.0,86,0.00,,SCT040,0.02,39.00,VWS V14.00,2013-09-26 20:21:00,
2013-09-26 16:26:00,79.3,74.8,29.77,West,273,2.0,3.0,86,0.00,,SCT040,0.02,40.00,VWS V14.00,2013-09-26 20:26:00,
2013-09-26 16:31:00,79.4,74.8,29.77,West,273,6.0,7.0,86,0.00,,SCT040,0.02,40.00,VWS V14.00,2013-09-26 20:31:00,
2013-09-26 16:36:00,79.4,74.8,29.77,West,273,2.0,5.0,86,0.00,,SCT040,0.02,40.00,VWS V14.00,2013-09-26 20:36:00,
2013-09-26 16:41:00,79.6,75.1,29.77,West,274,2.0,5.0,86,0.00,,SCT040,0.02,42.00,VWS V14.00,2013-09-26 20:41:00,
2013-09-26 16:46:00,79.8,75.2,29.77,West,276,6.0,7.0,86,0.00,,SCT040,0.02,42.00,VWS V14.00,2013-09-26 20:46:00,
2013-09-26 16:51:00,79.9,75.3,29.77,West,263,4.0,11.0,86,0.00,,SCT040,0.02,44.00,VWS V14.00,2013-09-26 20:51:00,
2013-09-26 16:56:00,80.0,75.4,29.77,West,279,4.0,6.0,86,0.00,,SCT040,0.02,44.00,VWS V14.00,2013-09-26 20:56:00,
2013-09-26 17:01:00,80.2,75.6,29.76,West,281,1.0,4.0,86,0.00,,SCT040,0.02,42.00,VWS V14.00,2013-09-26 21:01:00,
2013-09-26 17:06:00,80.4,75.8,29.77,WNW,282,2.0,4.0,86,0.00,,SCT040,0.02,42.00,VWS V14.00,2013-09-26 21:06:00,
2013-09-26 17:11:00,80.5,75.9,29.77,WNW,293,5.0,5.0,86,0.00,,SCT040,0.02,39.00,VWS V14.00,2013-09-26 21:11:00,
2013-09-26 17:16:00,80.7,75.8,29.76,WNW,293,1.0,6.0,85,0.00,,SCT040,0.02,39.00,VWS V14.00,2013-09-26 21:16:00,
2013-09-26 17:22:00,80.8,76.2,29.76,WNW,293,3.0,6.0,86,0.00,,SCT040,0.02,39.00,VWS V14.00,2013-09-26 21:22:00,
2013-09-26 17:27:00,80.9,76.0,29.76,WNW,292,1.0,6.0,85,0.00,,SCT040,0.02,37.00,VWS V14.00,2013-09-26 21:27:00,
2013-09-26 17:32:00,81.0,76.4,29.76,WNW,293,4.0,5.0,86,0.00,,CLR,0.02,37.00,VWS V14.00,2013-09-26 21:32:00,
2013-09-26 17:37:00,81.1,76.2,29.76,WNW,288,4.0,6.0,85,0.00,,CLR,0.02,35.00,VWS V14.00,2013-09-26 21:37:00,
2013-09-26 17:42:00,81.2,76.6,29.76,WNW,286,4.0,6.0,86,0.00,,CLR,0.02,33.00,VWS V14.00,2013-09-26 21:42:00,
2013-09-26 17:47:00,81.2,76.6,29.75,WNW,286,5.0,7.0,86,0.00,,CLR,0.02,32.00,VWS V14.00,2013-09-26 21:47:00,
2013-09-26 17:52:00,81.3,76.7,29.75,WNW,286,2.0,4.0,86,0.00,,CLR,0.02,30.00,VWS V14.00,2013-09-26 21:52:00,
2013-09-26 17:57:00,81.3,76.7,29.75,WNW,284,7.0,7.0,86,0.00,,CLR,0.02,30.00,VWS V14.00,2013-09-26 21:57:00,
2013-09-26 18:02:00,81.4,76.8,29.75,WNW,284,2.0,5.0,86,0.00,,CLR,0.02,28.00,VWS V14.00,2013-09-26 22:02:00,
2013-09-26 18:07:00,81.4,76.5,29.75,West,274,5.0,11.0,85,0.00,,CLR,0.02,28.00,VWS V14.00,2013-09-26 22:07:00,
2013-09-26 18:12:00,81.4,76.5,29.75,West,280,6.0,7.0,85,0.00,,CLR,0.02,58.00,VWS V14.00,2013-09-26 22:12:00,
2013-09-26 18:17:00,81.7,76.8,29.75,WNW,289,3.0,5.0,85,0.00,,CLR,0.02,51.00,VWS V14.00,2013-09-26 22:17:00,
2013-09-26 18:22:00,81.9,76.9,29.75,West,281,7.0,7.0,85,0.00,,CLR,0.02,32.00,VWS V14.00,2013-09-26 22:22:00,
2013-09-26 18:27:00,81.8,76.8,29.75,West,274,4.0,6.0,85,0.00,,CLR,0.02,25.00,VWS V14.00,2013-09-26 22:27:00,
2013-09-26 18:32:00,81.8,76.8,29.75,West,278,6.0,7.0,85,0.00,,CLR,0.02,62.00,VWS V14.00,2013-09-26 22:32:00,
2013-09-26 18:37:00,82.0,77.1,29.75,West,278,5.0,6.0,85,0.00,,CLR,0.02,54.00,VWS V14.00,2013-09-26 22:37:00,
2013-09-26 18:42:00,82.1,76.8,29.75,West,277,6.0,9.0,84,0.00,,CLR,0.02,49.00,VWS V14.00,2013-09-26 22:42:00,
2013-09-26 18:47:00,82.1,76.8,29.75,West,280,2.0,9.0,84,0.00,,CLR,0.02,42.00,VWS V14.00,2013-09-26 22:47:00,
2013-09-26 18:52:00,82.2,76.9,29.75,WNW,283,3.0,5.0,84,0.00,,CLR,0.02,32.00,VWS V14.00,2013-09-26 22:52:00,
2013-09-26 18:57:00,82.2,76.9,29.75,WNW,284,4.0,6.0,84,0.00,,CLR,0.02,23.00,VWS V14.00,2013-09-26 22:57:00,
2013-09-26 19:02:00,82.1,76.8,29.75,WNW,284,9.0,9.0,84,0.00,,CLR,0.02,18.00,VWS V14.00,2013-09-26 23:02:00,
2013-09-26 19:07:00,81.9,76.6,29.75,West,281,6.0,6.0,84,0.00,,CLR,0.02,9.00,VWS V14.00,2013-09-26 23:07:00,
2013-09-26 19:12:00,81.8,76.5,29.75,West,277,3.0,4.0,84,0.00,,CLR,0.02,5.00,VWS V14.00,2013-09-26 23:12:00,
2013-09-26 19:17:00,81.6,76.3,29.76,West,275,2.0,4.0,84,0.00,,CLR,0.02,0.00,VWS V14.00,2013-09-26 23:17:00,
2013-09-26 19:22:00,81.4,76.5,29.75,West,274,4.0,5.0,85,0.00,,CLR,0.02,0.00,VWS V14.00,2013-09-26 23:22:00,
2013-09-26 19:27:00,81.2,76.3,29.75,West,274,0.0,4.0,85,0.00,,CLR,0.02,0.00,VWS V14.00,2013-09-26 23:27:00,
2013-09-26 19:32:00,81.1,76.2,29.75,West,273,4.0,4.0,85,0.00,,SCT100,0.02,0.00,VWS V14.00,2013-09-26 23:32:00,
2013-09-26 19:37:00,81.0,76.4,29.76,West,273,4.0,6.0,86,0.00,,SCT100,0.02,0.00,VWS V14.00,2013-09-26 23:37:00,
2013-09-26 19:42:00,80.9,76.3,29.76,West,273,1.0,3.0,86,0.00,,SCT100,0.02,0.00,VWS V14.00,2013-09-26 23:42:00,
2013-09-26 19:48:00,80.8,76.2,29.76,West,273,3.0,4.0,86,0.00,,SCT100,0.02,0.00,VWS V14.00,2013-09-26 23:48:00,
2013-09-26 19:53:00,80.7,76.1,29.76,West,273,4.0,4.0,86,0.00,,SCT100,0.02,0.00,VWS V14.00,2013-09-26 23:53:00,
2013-09-26 19:58:00,80.6,76.0,29.76,West,273,2.0,3.0,86,0.00,,SCT100,0.02,0.00,VWS V14.00,2013-09-26 23:58:00,
2013-09-26 20:03:00,80.6,76.0,29.76,West,273,2.0,5.0,86,0.00,,SCT100,0.02,0.00,VWS V14.00,2013-09-27 00:03:00,
2013-09-26 20:10:00,80.5,75.9,29.76,West,270,4.0,6.0,86,0.00,,SCT100,0.02,0.00,VWS V14.00,2013-09-27 00:10:00,
2013-09-26 20:15:00,80.5,75.9,29.76,West,270,3.0,5.0,86,0.00,,SCT100,0.02,0.00,VWS V14.00,2013-09-27 00:15:00,
2013-09-26 20:20:00,80.5,75.9,29.76,West,270,4.0,6.0,86,0.00,,SCT100,0.02,0.00,VWS V14.00,2013-09-27 00:20:00,
2013-09-26 20:25:00,80.5,75.9,29.76,West,271,2.0,9.0,86,0.00,,SCT100,0.02,0.00,VWS V14.00,2013-09-27 00:25:00,
2013-09-26 20:30:00,80.4,75.8,29.76,West,271,4.0,5.0,86,0.00,,SCT100,0.02,0.00,VWS V14.00,2013-09-27 00:30:00,
2013-09-26 20:35:00,80.3,75.7,29.76,West,275,6.0,9.0,86,0.00,,SCT100,0.02,0.00,VWS V14.00,2013-09-27 00:35:00,
2013-09-26 20:40:00,80.3,75.7,29.76,West,276,4.0,7.0,86,0.00,,SCT100,0.02,0.00,VWS V14.00,2013-09-27 00:40:00,
2013-09-26 20:45:00,80.3,75.7,29.77,West,277,0.0,5.0,86,0.00,,SCT100,0.02,0.00,VWS V14.00,2013-09-27 00:45:00,
2013-09-26 20:50:00,80.3,75.7,29.77,West,281,2.0,5.0,86,0.00,,SCT100,0.02,0.00,VWS V14.00,2013-09-27 00:50:00,
2013-09-26 20:55:00,80.3,75.7,29.77,WNW,285,4.0,6.0,86,0.00,,SCT100,0.02,0.00,VWS V14.00,2013-09-27 00:55:00,
2013-09-26 21:00:00,80.3,75.7,29.77,WNW,286,4.0,5.0,86,0.00,,SCT100,0.02,0.00,VWS V14.00,2013-09-27 01:00:00,
2013-09-26 21:05:00,80.3,75.7,29.78,WNW,286,4.0,4.0,86,0.00,,SCT100,0.02,0.00,VWS V14.00,2013-09-27 01:05:00,
2013-09-26 21:10:00,80.3,75.7,29.77,WNW,286,5.0,6.0,86,0.00,,SCT100,0.02,0.00,VWS V14.00,2013-09-27 01:10:00,
2013-09-26 21:15:00,80.2,75.6,29.78,WNW,286,2.0,6.0,86,0.00,,SCT100,0.02,0.00,VWS V14.00,2013-09-27 01:15:00,
2013-09-26 21:20:00,80.2,75.6,29.78,WNW,286,5.0,5.0,86,0.00,,SCT100,0.03,0.00,VWS V14.00,2013-09-27 01:20:00,
2013-09-26 21:25:00,80.1,75.5,29.78,WNW,285,3.0,6.0,86,0.00,,SCT100,0.03,0.00,VWS V14.00,2013-09-27 01:25:00,
2013-09-26 21:30:00,80.1,75.5,29.79,WNW,286,3.0,4.0,86,0.00,,SCT100,0.03,0.00,VWS V14.00,2013-09-27 01:30:00,
2013-09-26 21:36:00,80.0,75.4,29.79,WNW,286,2.0,4.0,86,0.00,,SCT100,0.03,0.00,VWS V14.00,2013-09-27 01:36:00,
2013-09-26 21:41:00,79.9,75.3,29.79,WNW,286,3.0,4.0,86,0.00,,SCT100,0.03,0.00,VWS V14.00,2013-09-27 01:41:00,
2013-09-26 21:45:00,79.9,75.7,29.79,WNW,288,2.0,4.0,87,0.00,,SCT100,0.03,0.00,VWS V14.00,2013-09-27 01:45:00,
2013-09-26 21:51:00,79.8,75.6,29.79,WNW,288,2.0,5.0,87,0.00,,SCT100,0.03,0.00,VWS V14.00,2013-09-27 01:51:00,
2013-09-26 21:56:00,79.8,75.6,29.79,WNW,288,5.0,5.0,87,0.00,,SCT100,0.03,0.00,VWS V14.00,2013-09-27 01:56:00,
2013-09-26 22:01:00,79.7,75.5,29.79,WNW,288,0.0,3.0,87,0.00,,SCT100,0.03,0.00,VWS V14.00,2013-09-27 02:01:00,
2013-09-26 22:06:00,79.7,75.5,29.79,WNW,288,2.0,5.0,87,0.00,,SCT100,0.03,0.00,VWS V14.00,2013-09-27 02:06:00,
2013-09-26 22:11:00,79.6,75.4,29.80,WNW,288,1.0,4.0,87,0.00,,SCT100,0.03,0.00,VWS V14.00,2013-09-27 02:11:00,
2013-09-26 22:16:00,79.6,75.4,29.80,WNW,288,2.0,4.0,87,0.00,,SCT100,0.03,0.00,VWS V14.00,2013-09-27 02:16:00,
2013-09-26 22:21:00,79.6,75.4,29.80,WNW,288,2.0,5.0,87,0.00,,SCT100,0.03,0.00,VWS V14.00,2013-09-27 02:21:00,
2013-09-26 22:26:00,79.5,75.3,29.80,WNW,287,2.0,6.0,87,0.00,,SCT100,0.03,0.00,VWS V14.00,2013-09-27 02:26:00,
2013-09-26 22:31:00,79.5,75.3,29.79,WNW,287,4.0,5.0,87,0.00,,SCT100,0.03,0.00,VWS V14.00,2013-09-27 02:31:00,
2013-09-26 22:36:00,79.5,75.3,29.79,WNW,287,3.0,4.0,87,0.00,,SCT080,0.03,0.00,VWS V14.00,2013-09-27 02:36:00,
2013-09-26 22:41:00,79.5,75.3,29.79,WNW,287,2.0,4.0,87,0.00,,SCT080,0.03,0.00,VWS V14.00,2013-09-27 02:41:00,
2013-09-26 22:46:00,79.4,75.2,29.79,WNW,287,0.0,4.0,87,0.00,,SCT080,0.03,0.00,VWS V14.00,2013-09-27 02:46:00,
2013-09-26 22:51:00,79.4,75.2,29.79,WNW,286,4.0,7.0,87,0.00,,SCT080,0.03,0.00,VWS V14.00,2013-09-27 02:51:00,
2013-09-26 22:56:00,79.3,75.1,29.79,WNW,286,4.0,4.0,87,0.00,,SCT080,0.03,0.00,VWS V14.00,2013-09-27 02:56:00,
2013-09-26 23:01:00,79.3,75.1,29.79,WNW,286,2.0,4.0,87,0.00,,SCT080,0.03,0.00,VWS V14.00,2013-09-27 03:01:00,
2013-09-26 23:06:00,79.3,75.1,29.79,WNW,286,0.0,4.0,87,0.00,,SCT080,0.03,0.00,VWS V14.00,2013-09-27 03:06:00,
2013-09-26 23:11:00,79.4,75.5,29.79,WNW,286,0.0,2.0,88,0.00,,SCT080,0.03,0.00,VWS V14.00,2013-09-27 03:11:00,
2013-09-26 23:16:00,79.4,75.5,29.79,WNW,286,0.0,3.0,88,0.00,,SCT080,0.03,0.00,VWS V14.00,2013-09-27 03:16:00,
2013-09-26 23:21:00,79.4,75.5,29.79,WNW,286,3.0,5.0,88,0.00,,SCT080,0.03,0.00,VWS V14.00,2013-09-27 03:21:00,
2013-09-26 23:26:00,79.4,75.5,29.80,WNW,286,0.0,4.0,88,0.00,,SCT080,0.03,0.00,VWS V14.00,2013-09-27 03:26:00,
2013-09-26 23:31:00,79.3,75.4,29.80,WNW,286,1.0,3.0,88,0.00,,SCT080,0.03,0.00,VWS V14.00,2013-09-27 03:31:00,
2013-09-26 23:36:00,79.2,75.3,29.80,WNW,286,0.0,2.0,88,0.00,,SCT080,0.03,0.00,VWS V14.00,2013-09-27 03:36:00,
2013-09-26 23:41:00,79.1,75.2,29.80,WNW,286,3.0,3.0,88,0.00,,SCT080,0.03,0.00,VWS V14.00,2013-09-27 03:41:00,
2013-09-26 23:46:00,79.0,75.2,29.80,WNW,286,0.0,0.0,88,0.00,,SCT080,0.03,0.00,VWS V14.00,2013-09-27 03:46:00,
2013-09-26 23:51:00,78.9,75.1,29.80,WNW,286,0.0,0.0,88,0.00,,SCT080,0.03,0.00,VWS V14.00,2013-09-27 03:51:00,
2013-09-26 23:56:00,79.0,75.2,29.81,WNW,286,0.0,0.0,88,0.00,,SCT080,0.03,0.00,VWS V14.00,2013-09-27 03:56:00,